Retour au catalogue

ONEWEB-0185

ActifCommunicationsPO
NORAD 48220·PAYLOAD·🇬🇧 United Kingdom

Lancé Apr 25, 2021 depuis Vostochny Cosmodrome

Loading…

Prochains Passages (prochaines 24 heures)

TLE

FraisSource: CelesTrak SupGP

Époque: Sep 14, 2026, 16:02 UTC

1 48220C 21031L   26257.66854581 -.00001143  00000+0 -30867-2 0  2571
2 48220  87.8895 271.8578 0001723 103.9659 314.3368 13.14503149    17

Suivez ONEWEB-0185 en temps réel avec AllMySat

Download on the App Store